This is the latest recevied weather packets stored in our database for station/object KI5GCD-13. If no packets are shown the sender has not sent any weather packets the latest 1 day(s).
| Time | Temp. | Humidity | Pressure | Rain* | Wind** | Luminosity | Snow |
|---|---|---|---|---|---|---|---|
| 1778037587 | 8.33° C | 96% | 1008.1 hPa | 0 mm | 1.34 m/s, 54° | - | - |
| 1778037287 | 8.33° C | 96% | 1008 hPa | 0 mm | 1.79 m/s, 83° | - | - |
| 1778036988 | 8.33° C | 96% | 1008.1 hPa | 0 mm | 0.89 m/s, 263° | - | - |
| 1778036687 | 8.33° C | 96% | 1008 hPa | 0 mm | 1.34 m/s, 79° | - | - |
| 1778036387 | 8.33° C | 96% | 1007.8 hPa | 0 mm | 1.79 m/s, 75° | - | - |
| 1778036087 | 8.33° C | 96% | 1007.8 hPa | 0 mm | 2.68 m/s, 47° | - | - |
| 1778035788 | 8.33° C | 95% | 1007.6 hPa | 0 mm | 0.89 m/s, 350° | - | - |
| 1778035487 | 8.33° C | 96% | 1007.5 hPa | 0 mm | 0.89 m/s, 67° | - | - |
| 1778035187 | 8.33° C | 95% | 1007.3 hPa | 0 mm | 2.24 m/s, 63° | - | - |
| 1778034887 | 8.33° C | 95% | 1007.4 hPa | 0 mm | 0.89 m/s, 208° | - | - |
| 1778034587 | 8.33° C | 95% | 1007.4 hPa | 0 mm | 0.89 m/s, 287° | - | - |
| 1778034287 | 8.33° C | 95% | 1007.1 hPa | 0 mm | 2.24 m/s, 42° | - | - |
| 1778033988 | 8.33° C | 95% | 1007.2 hPa | 0 mm | 0.45 m/s, 282° | - | - |
| 1778033687 | 8.33° C | 95% | 1007 hPa | 0 mm | 1.34 m/s, 321° | - | - |
| 1778033387 | 8.33° C | 94% | 1006.9 hPa | 0 mm | 1.79 m/s, 340° | - | - |
| 1778033087 | 8.33° C | 95% | 1007 hPa | 0 mm | 0.89 m/s, 33° | - | - |
| 1778032787 | 8.33° C | 95% | 1007.1 hPa | 0 mm | 0.89 m/s, 325° | - | - |
| 1778032487 | 8.89° C | 95% | 1006.9 hPa | 0 mm | 0.89 m/s, 334° | - | - |
| 1778032187 | 8.89° C | 95% | 1006.8 hPa | 0 mm | 0.89 m/s, 11° | - | - |
| 1778031887 | 8.89° C | 94% | 1006.8 hPa | 0 mm | 1.34 m/s, 16° | - | - |
| 1778031587 | 8.89° C | 94% | 1006.9 hPa | 0 mm | 0.89 m/s, 148° | - | - |
| 1778031287 | 8.89° C | 94% | 1006.8 hPa | 0 mm | 0.45 m/s, 83° | - | - |
| 1778030987 | 8.89° C | 93% | 1006.9 hPa | 0 mm | 0.89 m/s, 324° | - | - |
| 1778030687 | 8.89° C | 93% | 1006.6 hPa | 0 mm | 1.34 m/s, 307° | - | - |
| 1778030387 | 8.89° C | 92% | 1006.7 hPa | 0 mm | 1.79 m/s, 332° | - | - |
* Rain latest hour (hover to see other rain measurements)
** Current wind speed in m/s (hover to see current wind gust speed)